Regional Weather Roundup
Issued by NWS Wakefield, VA

Home | Current Version | Previous Version | Graphics & Text | Print | Product List | Glossary On
Versions: 1 2 3 4 5 6 7 8 9 10 11 12 13 14 15 16 17 18 19 20 21 22 23 24 25 26 27
000
ASUS41 KAKQ 190115
RWRAKQ

REGIONAL WEATHER ROUNDUP
NATIONAL WEATHER SERVICE WAKEFIELD VA
800 PM EST SUN FEB 18 2018

Note: "fair" indicates few or no clouds below 12,000 feet with no
significant weather and/or obstructions to visibility. * = Denotes
station may not report precipitation (e.g., rain,snow,etc.),
thunder or fog.

VAZ042-051-052>054-056-190200-
NORTHERN VIRGINIA

CITY           SKY/WX    TMP DP  RH WIND       PRES   REMARKS
WASH NATIONAL  MOCLDY    43  33  68 SE9       30.45S
DULLES         MOCLDY    39  29  67 E6        30.42F
FORT BELVOIR   FAIR      38  30  73 CALM      30.44S
QUANTICO       FAIR      43  36  76 CALM      30.45S
FREDERICKSBRG* FAIR      44  33  66 CALM      30.44S
STAFFORD*      FAIR      37  32  82 CALM      30.48S
WARRENTON        N/A     40  28  63 E5        30.42S
CULPEPER*      FAIR      38  31  74 CALM      30.43S
MANASSAS*      FAIR      36  31  82 CALM      30.44R
LEESBURG*      FAIR      43  32  65 SE6       30.42F
WINCHESTER     FAIR      37  28  70 SE5       30.40S
FRONT ROYAL*   FAIR      41  30  65 CALM      30.37F
LURAY*         FAIR      37  32  81 CALM      30.38S
$$

VAZ048-049-060>072-079>083-190200-
CENTRAL AND SOUTH CENTRAL VIRGINIA

CITY           SKY/WX    TMP DP  RH WIND       PRES   REMARKS
RICHMOND       FAIR      43  35  73 SE10      30.44R
CHESTERFIELD*  FAIR      44  36  73 SE7       30.44R
PETERSBURG*    FAIR      43  34  70 SE6       30.46R
HANOVER        FAIR      43  33  68 E6        30.44S
TAPPAHANNOCK*  FAIR      38  34  85 MISG      30.46S
QUINTON*       FAIR      43  33  69 SE3       30.46R
CHARLOTTSVILLE FAIR      47  32  56 CALM      30.40R
GORDONSVILLE*  FAIR      38  36  93 CALM      30.41R
ORANGE*        FAIR      37  34  87 CALM      30.41S
LOUISA*        FAIR      34  33  96 SE3       30.45F
BUMPASS*       FAIR      41  33  73 E6        30.42F
FARMVILLE*     FAIR      46  39  77 CALM      30.40S
CREWE*         FAIR      39  39 100 CALM      30.41S
FORT PICKETT*  MOCLDY    43  38  83 E6        30.42S
CHASE CITY*    FAIR      46  37  72 E3        30.40S
CLARKSVILLE*   FAIR      48  37  66 E6        30.40R
SOUTH HILL*    FAIR      46  39  79 CALM      30.47S
LAWRENCEVILLE* MOCLDY    46  38  72 E5        30.43R
EMPORIA*       FAIR      43  36  75 NE6       30.46R
$$

VAZ088>098-190200-
SOUTHEAST VIRGINIA

CITY           SKY/WX    TMP DP  RH WIND       PRES   REMARKS
NORFOLK        FAIR      43  35  73 CALM      30.47R
VIRGINIA BEACH FAIR      40  34  79 CALM      30.47R
NORFOLK NAVAL  FAIR      42  33  70 SE5       30.49R
WEST POINT*    FAIR      36  32  85 CALM      30.49R
SALUDA*        FAIR      40  37  91 CALM      30.47S
NEWPORT NEWS   FAIR      36  33  89 E3        30.47R
LANGLEY AFB    FAIR      42  36  80 SE5       30.47R
FORT EUSTIS    FAIR      42  32  67 E5        30.45R
WILLIAMSBURG*  FAIR      39  30  70 CALM      30.48R
HR EXEC AP*    FAIR      33  32  96 E3        30.48R
FRANKLIN*      FAIR      38  34  87 SE5       30.47R
US460-WAKEFLD  FAIR      38  33  82 CALM      30.47R
$$

VAZ020-022-025-037-045-190200-
WEST CENTRAL AND SOUTHWEST VIRGINIA

CITY           SKY/WX    TMP DP  RH WIND       PRES   REMARKS
STAUNTON*      FAIR      41  32  69 S3        30.39S
WAYNESBORO*    FAIR      41  32  69 SE3       30.38R
HOT SPRINGS VA FAIR      38  24  55 SE10G16   30.31R
LYNCHBURG      FAIR      45  35  68 E5        30.39R
DANVILLE       FAIR      47  32  56 E5        30.38R
SOUTH BOSTON*  FAIR      49  36  61 E5        30.40R
MARTINSVILLE   FAIR      38  32  79 CALM      30.40R
ROANOKE        FAIR      47  28  47 CALM      30.39R
BLACKSBURG     FAIR      44  27  51 E5        30.38R
DUBLIN*        FAIR      45  28  52 SE7       30.36R
MARION*        FAIR      47  -4  12 E6        30.34R
HILLSVILLE*    FAIR      43  28  54 SE5       30.33R
RICHLANDS*     FAIR      48  29  48 SE9G18    30.24R
WISE*          FAIR      50  34  53 S8        30.23S
ABINGDON*      FAIR      52  35  51 SE6       30.25R
$$

MDZ021>025-VAZ099-100-190200-
SOUTHERN MARYLAND AND THE DELMARVA PENINSULA

CITY           SKY/WX    TMP DP  RH WIND       PRES   REMARKS
PATUXENT RIVER FAIR      36  34  92 SE3       30.46S
BAY BRIDGE APT FAIR      39  32  75 SE3       30.46S HAZE
LEONARDTOWN    FAIR      34  32  93 CALM      30.48S
DOVER          FAIR      36  30  79 E3        30.47S
GEORGETOWN     FAIR      38  31  76 CALM      30.48R
EASTON         PTCLDY    39  30  70 E6        30.50R
CAMBRIDGE        N/A     36  34  93 SE3       30.48R
SALISBURY      FAIR      35  32  88 CALM      30.48R
OCEAN CITY     FAIR      38  32  79 N3        30.49R
WALLOPS ISLAND FAIR      39  34  82 SE6       30.50R
ACCOMACK*      FAIR      38  36  92 E3        30.48R
$$

NCZ012>017-030>032-190200-
NORTH CENTRAL AND EASTERN NORTH CAROLINA

CITY           SKY/WX    TMP DP  RH WIND       PRES   REMARKS
ROANOKE RAPIDS FAIR      46  36  66 SE5       30.44R
RALEIGH        FAIR      52  40  63 E8        30.40R
ELIZABETH CITY FAIR      43  36  76 E8        30.48R
AHOSKIE*       FAIR      43  38  82 SE5       30.46R
EDENTON*       FAIR      44  37  77 E5        30.48S
CURRITUCK*     FAIR      41  36  80 CALM      30.49R
KILL DEVIL HLS FAIR      42  38  86 CALM      30.47R
MANTEO         FAIR      43  36  77 E8        30.48S
CAPE HATTERAS  FAIR      46  39  76 NE9       30.45S
TARBORO*       NOT AVBL
GOLDSBORO      FAIR      51  40  67 E10       30.40R
WASHINGTON     FAIR      44  35  69 E8        30.46R
GREENVILLE     FAIR      46  36  66 E9        30.44S
NEW BERN       FAIR      46  38  73 E7        30.45S
WILMINGTON     CLOUDY    51  41  68 E12G21    30.41R
$$

VAZ048-190200-
ELSEWHERE

CITY           SKY/WX    TMP DP  RH WIND       PRES   REMARKS
HARRISBURG PA  FAIR      33  27  78 CALM      30.44S
BALTIMORE      FAIR      37  31  78 CALM      30.44S
ANNAPOLIS      FAIR      39  36  89 CALM      30.45S
ANDREWS AFB    CLEAR     36  30  80 E7        30.44F
PHILADELPHIA   FAIR      41  25  53 N5        30.49R
HENDERSON NC   FAIR      44  36  72 E6        30.40R
GREENSBORO     FAIR      50  33  52 E5        30.36R
ROCKY MOUNT    FAIR      50  39  66 E9        30.42R
$$

VAZ100-190200-
MARINE

STATION/POSITION TIME  TEMP    WIND        PRES    WAVE   SWELL
                       AIR SEA DIR/SP/G            HT/PER HT/PER
                 (UTC) (F)     (DEG/KT/KT) (MB)    (FT/S) (FT/S)
BRANDYWINE LGT   0048           40/  9/ 10   N/A
CAPE MAY NJ      0048   39 41   60/  3/  5 1031.7S
LEWES DE         0042   42 43   50/  6/  7 1032.0R
15NM E FENWICK I 0050   43 43  360/  8/ 10 1032.4R   2/ 8   2/ 8
OCEAN-CITY-INLET 0042   42 43   30/  5/  7 1032.7R
WACHAPREAGUE VA  0042   41 48   70/  4/  6 1032.4R
THOMAS POINT MD  0000   42 38  100/  3/  3   N/A
GOOSES REEF MD   0100   41 39  160/  4/  6 1031.9R   0
COVE POINT MD    0042   42     180/  4/  5 1032.4R
SOLOMONS ISLAND  0042   39 40  140/  2/  2 1031.4R
BISHOPS HEAD MD  0042   43 45  100/  5/  6 1032.2R
POTOMAC MD       0100   41 40  360/  6/  6 1031.3    0
CAMBRIDGE MD     0042   42 43              1032.5R
LEWISETTA VA     0042   44 44  120/  6/  7 1031.8R
RAPPAHANNOCK LGT 0042          100/  8/  9 1032.5R
STINGRAY PT      0100   42 42  120/  4/  6 1032.4    1
YORK RVR RNG VA  0042   43     140/  8/  9 1032.4R
YORKTOWN VA      0042   44 46  150/  5/  7 1031.5R
DOMINION TERM VA 0042   46     100/  3/  7 1032.1R
KIPTOPEKE VA     0042      44   90/  3/  4   N/A
CAPE HENRY VA    0042   42     130/  6/  8   N/A
S CRANEY ISL VA  0042   45     130/  6/  7 1031.5R
CAPE HENRY BUOY  0100      43                N/A     2/ 6
1ST LANDING BUOY 0100   42 42  160/  4/  4 1032.2    1/ 3
CAPE CHARLES BUO 0051      43                N/A     2/ 6
64NM E OF VA BCH 2350   46 50   40/ 14/ 17 1031.6    4/ 6   2/10
DUCK PIER NC     0042   44 45   80/  7/  9 1031.5R
44100 DUCK FRF   0045      44                N/A     4/ 6
44056 DUCK FRF   0030      44                N/A     4/ 6
OREGON INLET NC  0048           40/  8/ 10   N/A
HATTERAS NC      0042   47 57   50/ 10/ 15 1030.9R
DIAMOND SHLS NC  0050   54      20/ 17/ 23   N/A     8/ 9   5/ 9
CAPE LOOKOUT NC  0000           50/ 21/ 24 1030.4R
$$




USA.gov is the U.S. government's official web portal to all federal, state and local government web resources and services.